Hlavní strana
METAR-TAF:

METAR-TAF

Letiště :

Fayetteville, Tennessee, Spojené státy americké

zeměpisná šířka: 35-03-35N, zeměpisná délka: 086-33-50W, výška: 300 m

Aktuální stav počasí

Zpráva byla vytvořena před 21 minutami, v 16:15 UTC
Východoseverovýchodní vítr 4 kt
Teplota 16°C
Vlhkost vzduchu 51%
Tlak 1023 hPa
Viditelnost: 16.1 km
Jasno

METAR: KFYM 301615Z AUTO 06004KT 10SM CLR 16/06 A3021 RMK A01

Čas: 11:36 (16:36 UTC)


TAF: chybějící

Stav a předpovědi počasí z více než 4 000 letišť (zprávy METAR a TAF).

Červené a žluté tečky na mapě představují dostupné meteorologické stanice.

Když kurzor umístíte na tečku, zobrazí se název stanice.

Pak kliknutím zobrazíte stav a předpověď počasí.

Chcete-li změnit mapu, kliknutím na zelené tlačítko se znaménkem +mapu přiblížíte, kliknutím na zelené tlačítko se znaménkem – mapu oddálíte a kliknutím na zelené šipky přejdete na sousední mapy.


METAR-TAF: